Tracking 31027 objects as of 19-Jul-2025
HD Live streaming from Space Station
objects crossing your sky now

ORBCOMM FM 103

Track ORBCOMM FM 103 now!
10-day predictions
ORBCOMM FM 103 is classified as:


NORAD ID: 40091
Int'l Code: 2014-040F
Perigee: 705.5 km
Apogee: 706.8 km
Inclination: 47.0 °
Period: 98.8 minutes
Semi major axis: 7077 km
RCS: Unknown
Launch date: July 14, 2014
Source: United States (US)
Launch site: AIR FORCE EASTERN TEST RANGE (AFETR)
Your satellite tracking list
FENGYUN 1C DEB
Track 1 satellite(s)




NASA's NSSDC Master Catalog

Two Line Element Set (TLE):
1 40091U 14040F   25199.43064775  .00000247  00000-0  89506-4 0  9990
2 40091  47.0038 230.2508 0000925  28.5466 331.5470 14.58201372568662
Source of the keplerian elements: AFSPC